Stanley, ID

2:25 AM MST on February 11, 2016 (GMT -0700)
Stanley

Weather History for KSNT - February, 2012

Change the Weather History Date:

Friday, February 24, 2012

  Actual Average Record
Temperature  
Mean Temperature 15 °F 21 °F  
Max Temperature 38 °F 36 °F 48 °F (1981)
Min Temperature -8 °F 6 °F -35 °F (1982)
Degree Days  
Heating Degree Days 50 44  
Month to date heating degree days 1167 1133  
Since 1 July heating degree days 7308 7362  
Cooling Degree Days 0 0  
Month to date cooling degree days 0 0  
Year to date cooling degree days 0 0  
Moisture  
Dew Point 5 °F    
Average Humidity 62    
Maximum Humidity 87    
Minimum Humidity 36    
Precipitation  
Precipitation 0.00 in 0.06 in 0.96 in (1917)
Month to date precipitation 0.86 1.52  
Year to date precipitation 3.59 3.04  
Sea Level Pressure  
Sea Level Pressure 30.20 in    
Wind  
Wind Speed 5 mph (SE)    
Max Wind Speed 20 mph    
Max Gust Speed 29 mph    
T = Trace of Precipitation, MM = Missing Value Source: NWS Daily Summary

Daily Weather History Graph

Daily Weather History Graph

Search for Another Location

Airport or City:

Trip Planner

Search our weather history database for the weather conditions in past years. The results will help you decide how hot, cold, wet, or windy it might be!

Date:

Astronomy

Feb. 24, 2012 Rise Set
Actual Time 7:25 AM MST 6:20 PM MST
Civil Twilight 6:56 AM MST 6:50 PM MST
Nautical Twilight 6:23 AM MST 7:23 PM MST
Astronomical Twilight 5:49 AM MST 7:57 PM MST
Moon 8:14 AM MST (2/24) 9:38 PM MST (2/24)
Length of Visible Light 11h 53m
Length of Day
10h 54m
Waxing Crescent, 8% of the Moon is Illuminated
Feb 24
Waxing Crescent
Feb 29
First Quarter
Mar 8
Full
Mar 14
Last Quarter
Mar 22
New

Hourly Weather History & Observations

Time (MST) Temp. Windchill Dew Point Humidity Pressure Visibility Wind Dir Wind Speed Gust Speed Precip Events Conditions
12:51 AM 5.0 °F -5.6 °F 1.0 °F 84% 30.27 in - SSE 5.8 mph - N/A   Unknown
1:51 AM 3.0 °F -6.4 °F -0.9 °F 84% 30.28 in - SSE 4.6 mph - N/A   Unknown
2:51 AM 1.9 °F - -2.0 °F 83% 30.28 in - Calm Calm - N/A   Unknown
3:51 AM 1.0 °F - -2.9 °F 83% 30.30 in - Calm Calm - N/A   Unknown
4:51 AM -2.0 °F - -7.1 °F 79% 30.33 in - Calm Calm - N/A   Unknown
5:51 AM -2.9 °F -13.3 °F -8.0 °F 79% 30.34 in - SE 4.6 mph - N/A   Unknown
6:51 AM -6.0 °F - -9.0 °F 87% 30.40 in - Calm Calm - N/A   Unknown
7:51 AM -6.0 °F - -9.9 °F 83% 30.42 in - Calm Calm - N/A   Unknown
8:51 AM -2.0 °F -10.1 °F -7.1 °F 79% 30.43 in - East 3.5 mph - N/A   Unknown
9:51 AM 3.9 °F -3.4 °F -2.0 °F 76% 30.42 in - Variable 3.5 mph - N/A   Unknown
10:51 AM 6.1 °F - -0.0 °F 76% 30.41 in - Calm Calm - N/A   Unknown
11:51 AM 17.1 °F - 3.9 °F 56% 30.32 in - Calm Calm - N/A   Unknown
12:51 PM 19.9 °F - 5.0 °F 52% 30.29 in - Calm Calm - N/A   Unknown
1:51 PM 25.0 °F - 5.0 °F 43% 30.23 in - Calm Calm - N/A   Unknown
2:51 PM 32.0 °F 28.7 °F 9.0 °F 38% 30.17 in - NNW 3.5 mph - N/A   Unknown
3:51 PM 33.1 °F 28.7 °F 10.9 °F 40% 30.14 in - NNW 4.6 mph - N/A   Unknown
4:51 PM 37.0 °F - 15.1 °F 41% 30.11 in - Calm Calm - N/A   Unknown
5:51 PM 30.0 °F - 18.0 °F 61% 30.12 in - Calm Calm - N/A   Unknown
6:51 PM 32.0 °F 25.6 °F 19.9 °F 61% 30.09 in - SE 6.9 mph - N/A   Unknown
7:51 PM 30.0 °F 20.0 °F 18.0 °F 61% 30.05 in - SSE 12.7 mph 23.0 mph N/A   Unknown
8:51 PM 30.0 °F 18.3 °F 17.1 °F 59% 29.97 in - SSE 17.3 mph 26.5 mph N/A   Unknown
9:51 PM 30.9 °F 19.8 °F 18.0 °F 59% 29.90 in - SSE 16.1 mph 25.3 mph N/A   Unknown
10:51 PM 30.0 °F 21.1 °F 17.1 °F 59% 29.86 in - SSE 10.4 mph 18.4 mph N/A   Unknown
11:51 PM 30.0 °F 19.1 °F 16.0 °F 56% 29.76 in - SSE 15.0 mph 26.5 mph N/A   Unknown